Weather History for KCKC - November, 2012

Change the Weather History Date:

Saturday, November 10, 2012

  Actual Average Record
Temperature  
Mean Temperature 31 °F -  
Max Temperature 39 °F 33 °F 53 °F (2010)
Min Temperature 23 °F 22 °F 5 °F (2014)
Degree Days  
Heating Degree Days 34    
Moisture  
Dew Point 28 °F    
Average Humidity 86    
Maximum Humidity 93    
Minimum Humidity 74    
Precipitation  
Precipitation 0.16 in - - ()
Sea Level Pressure  
Sea Level Pressure 29.87 in    
Wind  
Wind Speed 13 mph (ENE)    
Max Wind Speed 21 mph    
Max Gust Speed 28 mph    
Visibility 4 miles    
Events Fog , Rain , Snow    
Averages and records for this station are not official NWS values.
T = Trace of Precipitation, MM = Missing Value Source: NWS Daily Summary

Daily Weather History Graph

Daily Weather History Graph

Search for Another Location

Airport or City:

Trip Planner

Search our weather history database for the weather conditions in past years. The results will help you decide how hot, cold, wet, or windy it might be!

Date:

Astronomy

Nov. 10, 2012 Rise Set
Actual Time 7:00 AM CST 4:29 PM CST
Civil Twilight 6:27 AM CST 5:03 PM CST
Nautical Twilight 5:50 AM CST 5:40 PM CST
Astronomical Twilight 5:13 AM CST 6:16 PM CST
Moon 2:51 AM CST (11/10) 2:29 PM CST (11/10)
Length of Visible Light 10h 35m
Length of Day
9h 29m
Waning Crescent, 14% of the Moon is Illuminated
Nov 10
Waning Crescent
Nov 13
New
Nov 20
First Quarter
Nov 28
Full
Dec 6
Last Quarter

Hourly Weather History & Observations

Time (CST) Temp. Windchill Dew Point Humidity Pressure Visibility Wind Dir Wind Speed Gust Speed Precip Events Conditions
12:14 AM 23.0 °F 13.1 °F 15.8 °F 74% 30.16 in 10.0 mi NNE 9.2 mph - N/A   Overcast
12:33 AM 23.0 °F 11.7 °F 15.8 °F 74% 30.16 in 10.0 mi NE 11.5 mph - N/A   Overcast
12:53 AM 23.0 °F 13.1 °F 15.8 °F 74% 30.16 in 10.0 mi NE 9.2 mph - N/A   Overcast
1:14 AM 24.8 °F 14.0 °F 17.6 °F 74% 30.14 in 10.0 mi NE 11.5 mph - N/A   Mostly Cloudy
1:33 AM 24.8 °F 13.4 °F 17.6 °F 74% 30.13 in 10.0 mi NE 12.7 mph 16.1 mph N/A   Scattered Clouds
2:14 AM 24.8 °F 13.4 °F 19.4 °F 80% 30.12 in 10.0 mi ENE 12.7 mph 16.1 mph N/A   Overcast
2:33 AM 24.8 °F 14.0 °F 19.4 °F 80% 30.12 in 10.0 mi ENE 11.5 mph - N/A   Mostly Cloudy
2:53 AM 24.8 °F 13.4 °F 19.4 °F 80% 30.11 in 10.0 mi ENE 12.7 mph - N/A   Scattered Clouds
3:13 AM 24.8 °F 12.9 °F 19.4 °F 80% 30.10 in 10.0 mi ENE 13.8 mph 18.4 mph N/A   Mostly Cloudy
3:34 AM 26.6 °F 16.2 °F 19.4 °F 74% 30.09 in 10.0 mi ENE 11.5 mph 18.4 mph N/A   Overcast
3:53 AM 26.6 °F 15.2 °F 21.2 °F 80% 30.08 in 10.0 mi ENE 13.8 mph 21.9 mph N/A   Overcast
4:14 AM 26.6 °F 15.7 °F 21.2 °F 80% 30.08 in 10.0 mi ENE 12.7 mph - N/A   Overcast
4:33 AM 26.6 °F 13.8 °F 21.2 °F 80% 30.07 in 10.0 mi ENE 17.3 mph 24.2 mph N/A   Overcast
4:54 AM 26.6 °F 13.8 °F 21.2 °F 80% 30.04 in 10.0 mi NE 17.3 mph 24.2 mph N/A   Overcast
5:14 AM 26.6 °F 15.2 °F 21.2 °F 80% 30.05 in 10.0 mi NE 13.8 mph 18.4 mph N/A   Overcast
5:33 AM 26.6 °F 15.2 °F 21.2 °F 80% 30.05 in 10.0 mi ENE 13.8 mph - N/A Snow Light Snow
5:53 AM 26.6 °F 13.8 °F 21.2 °F 80% 30.03 in 10.0 mi NE 17.3 mph 23.0 mph N/A   Overcast
6:33 AM 26.6 °F 15.7 °F 23.0 °F 86% 30.03 in 5.0 mi NE 12.7 mph 18.4 mph N/A   Overcast
6:53 AM 28.4 °F 18.5 °F 24.8 °F 86% 30.04 in 2.0 mi ENE 11.5 mph 19.6 mph N/A   Overcast
7:14 AM 28.4 °F 17.5 °F 24.8 °F 86% 30.03 in 1.2 mi ENE 13.8 mph 18.4 mph 0.01 in Snow Light Snow
7:34 AM 28.4 °F 18.0 °F 24.8 °F 86% 30.02 in 1.8 mi ENE 12.7 mph 18.4 mph 0.01 in Snow Light Snow
7:53 AM 28.4 °F 16.6 °F 26.6 °F 93% 30.01 in 2.0 mi ENE 16.1 mph 27.6 mph 0.02 in Snow Light Snow
8:14 AM 30.2 °F 18.9 °F 26.6 °F 86% 30.02 in 2.5 mi ENE 16.1 mph 25.3 mph N/A   Overcast
8:54 AM 30.2 °F 20.2 °F 26.6 °F 86% 29.99 in 2.5 mi ENE 12.7 mph 26.5 mph N/A Snow Light Snow
9:13 AM 30.2 °F 19.3 °F 26.6 °F 86% 29.99 in 4.0 mi ENE 15.0 mph 26.5 mph N/A   Overcast
9:33 AM 30.2 °F 18.9 °F 26.6 °F 86% 29.97 in 4.0 mi ENE 16.1 mph 25.3 mph N/A   Overcast
9:53 AM 28.4 °F 17.0 °F 26.6 °F 93% 29.96 in 5.0 mi East 15.0 mph 21.9 mph N/A Snow Light Snow
10:14 AM 28.4 °F 17.0 °F 26.6 °F 93% 29.95 in 5.0 mi East 15.0 mph 24.2 mph N/A   Overcast
10:34 AM 28.4 °F 15.8 °F 26.6 °F 93% 29.94 in 3.0 mi ENE 18.4 mph 24.2 mph N/A   Overcast
10:53 AM 30.2 °F 18.1 °F 26.6 °F 86% 29.91 in 1.5 mi ENE 18.4 mph 27.6 mph 0.01 in   Overcast
11:13 AM 30.2 °F 18.1 °F 26.6 °F 86% 29.90 in 3.0 mi ENE 18.4 mph 25.3 mph N/A   Overcast
11:33 AM 30.2 °F 18.5 °F 26.6 °F 86% 29.89 in 4.0 mi ENE 17.3 mph 25.3 mph 0.01 in   Overcast
11:54 AM 30.2 °F 20.2 °F 28.4 °F 93% 29.87 in 5.0 mi East 12.7 mph 25.3 mph 0.01 in Snow Light Snow
12:13 PM 30.2 °F 18.5 °F 28.4 °F 93% 29.85 in 2.0 mi ENE 17.3 mph 26.5 mph N/A   Overcast
12:33 PM 30.2 °F 18.5 °F 28.4 °F 93% 29.82 in 2.5 mi ENE 17.3 mph 25.3 mph 0.01 in Snow Light Snow
12:54 PM 30.2 °F 20.2 °F 28.4 °F 93% 29.83 in 7.0 mi ENE 12.7 mph 26.5 mph 0.02 in   Overcast
1:13 PM 32.0 °F 21.2 °F 28.4 °F 87% 29.81 in 3.0 mi ENE 16.1 mph 24.2 mph N/A Snow Light Snow
1:34 PM 32.0 °F 20.8 °F 28.4 °F 87% 29.80 in 1.2 mi ENE 17.3 mph 25.3 mph N/A   Overcast
1:53 PM 32.0 °F 21.6 °F 28.4 °F 87% 29.79 in 1.2 mi ENE 15.0 mph 26.5 mph 0.01 in   Overcast
2:13 PM 32.0 °F 19.8 °F 28.4 °F 87% 29.77 in 0.2 mi ENE 20.7 mph 27.6 mph N/A   Overcast
2:34 PM 33.8 °F 22.8 °F 30.2 °F 87% 29.77 in 0.5 mi ENE 18.4 mph 25.3 mph N/A Snow Snow
2:53 PM 33.8 °F 23.5 °F 30.2 °F 87% 29.78 in 0.5 mi ENE 16.1 mph 25.3 mph N/A   Drizzle
3:13 PM 33.8 °F 24.3 °F 30.2 °F 87% 29.78 in 1.8 mi ENE 13.8 mph 27.6 mph 0.02 in Rain Light Rain
3:34 PM 33.8 °F 22.8 °F 30.2 °F 87% 29.77 in 3.0 mi ENE 18.4 mph 25.3 mph 0.02 in   Overcast
3:54 PM 33.8 °F 23.9 °F 30.2 °F 87% 29.77 in 1.8 mi ENE 15.0 mph 21.9 mph 0.03 in   Drizzle
4:13 PM 35.6 °F 27.1 °F 32.0 °F 87% 29.77 in 1.0 mi ENE 12.7 mph 20.7 mph 0.01 in   Drizzle
4:34 PM 35.6 °F 27.5 °F 32.0 °F 87% 29.77 in 1.2 mi ENE 11.5 mph 19.6 mph 0.01 in   Drizzle
4:54 PM 35.6 °F 25.9 °F 32.0 °F 87% 29.75 in 1.0 mi ENE 16.1 mph 25.3 mph 0.02 in   Overcast
5:13 PM 35.6 °F 26.6 °F 32.0 °F 87% 29.75 in 1.0 mi ENE 13.8 mph 23.0 mph N/A   Light Drizzle
5:34 PM 35.6 °F 25.5 °F 32.0 °F 87% 29.74 in 1.2 mi ENE 17.3 mph 24.2 mph 0.01 in Snow Light Snow
5:54 PM 35.6 °F 27.1 °F 32.0 °F 87% 29.74 in 1.5 mi ENE 12.7 mph 24.2 mph 0.02 in   Drizzle
6:13 PM 35.6 °F 27.5 °F 33.8 °F 93% 29.73 in 1.0 mi ENE 11.5 mph 20.7 mph N/A   Overcast
6:33 PM 35.6 °F 26.6 °F 33.8 °F 93% 29.73 in 1.2 mi ENE 13.8 mph 18.4 mph 0.01 in   Drizzle
6:54 PM 35.6 °F 26.6 °F 33.8 °F 93% 29.73 in 1.0 mi ENE 13.8 mph 19.6 mph 0.01 in   Overcast
7:13 PM 35.6 °F 26.6 °F 33.8 °F 93% 29.73 in 1.0 mi ENE 13.8 mph 19.6 mph N/A   Overcast
7:33 PM 37.4 °F 30.3 °F 33.8 °F 87% 29.73 in 1.0 mi NE 10.4 mph - 0.01 in   Drizzle
7:54 PM 35.6 °F 27.1 °F 33.8 °F 93% 29.71 in 2.5 mi NE 12.7 mph - 0.01 in   Light Drizzle
8:13 PM 37.4 °F 29.8 °F 33.8 °F 87% 29.70 in 1.2 mi NE 11.5 mph - N/A   Light Drizzle
8:33 PM 37.4 °F 29.8 °F 33.8 °F 87% 29.69 in 1.2 mi NE 11.5 mph - N/A   Light Drizzle
8:54 PM 37.4 °F 29.8 °F 33.8 °F 87% 29.68 in 1.5 mi ENE 11.5 mph 19.6 mph N/A   Light Drizzle
9:14 PM 37.4 °F 29.3 °F 33.8 °F 87% 29.67 in 2.5 mi NE 12.7 mph 19.6 mph N/A   Light Drizzle
9:34 PM 37.4 °F 29.8 °F 33.8 °F 87% 29.66 in 0.5 mi NE 11.5 mph 17.3 mph N/A Fog Fog
9:54 PM 37.4 °F 28.9 °F 33.8 °F 87% 29.66 in 0.2 mi ENE 13.8 mph - N/A Fog Fog
10:13 PM 37.4 °F 29.3 °F 35.6 °F 93% 29.64 in 0.2 mi East 12.7 mph - N/A Fog Fog
10:33 PM 37.4 °F 29.8 °F 35.6 °F 93% 29.63 in 0.2 mi ENE 11.5 mph 16.1 mph N/A   Overcast
10:54 PM 37.4 °F 30.3 °F 35.6 °F 93% 29.61 in 0.2 mi ENE 10.4 mph - N/A   Overcast
11:13 PM 37.4 °F 28.9 °F 35.6 °F 93% 29.61 in 0.2 mi NE 13.8 mph 19.6 mph N/A   Overcast
11:34 PM 39.2 °F 33.0 °F 35.6 °F 87% 29.61 in 0.2 mi ENE 9.2 mph 17.3 mph N/A   Overcast
11:54 PM 39.2 °F 30.8 °F 35.6 °F 87% 29.57 in 0.2 mi ENE 15.0 mph 20.7 mph N/A   Overcast